Wind_Speed
95 95 95 96 97 98 98 98 99 99 100 100 100 100 99 99 99 99 98 97 96 94 93 92 90 89 88 87 86 85 84 83 83 82 81 80 80 80 80 79 78 76 75 73 71 70 69 69 69 69 68 67 66 66 66 67 68 69 70 72 73 73 74 74 73 72 72 71 71 71 71 71 71 70 70 69 69 68 68 67 67 66 66 65 65 65
95 95 95 96 97 98 98 98 99 99 100 101 101 101 101 101 101 100 99 98 97 96 94 93 92 91 90 88 87 86 84 84 83 82 82 81 81 81 81 80 78 76 75 73 72 71 70 70 70 69 68 67 66 66 66 66 67 69 70 72 73 74 74 74 73 72 71 71 70 70 71 71 71 71 70 70 69 69 69 68 67 67 66 66 66 66
94 94 94 95 96 97 98 98 98 99 100 101 101 102 102 102 102 102 101 100 99 97 96 94 93 92 91 89 88 87 85 84 83 83 82 82 82 81 81 80 79 77 75 74 72 71 71 71 70 70 69 68 67 67 66 67 67 68 70 72 73 73 74 74 73 72 71 70 70 70 70 71 71 71 71 70 70 70 69 69 68 67 67 66 66 66
94 94 94 94 95 96 97 98 98 99 99 100 101 102 103 104 104 103 103 101 100 99 97 96 94 93 92 91 89 88 86 85 84 83 83 82 82 81 81 80 79 77 76 74 73 72 71 71 71 70 70 69 68 67 67 67 68 68 70 71 72 73 74 74 73 72 71 70 70 70 70 71 71 71 71 71 70 70 70 69 69 68 68 67 67 67
93 93 93 94 94 96 97 98 98 99 99 100 101 102 103 104 105 105 104 103 102 100 99 97 96 94 93 92 90 89 87 85 84 84 84 83 83 82 81 80 79 78 76 75 73 73 72 71 71 71 70 69 69 68 68 68 68 69 70 71 72 73 74 73 73 72 71 70 70 70 70 70 71 71 71 71 71 70 70 70 69 69 69 68 68 68
93 93 93 93 94 95 96 97 97 98 99 99 100 102 103 104 105 105 105 104 103 102 101 99 97 96 94 93 92 90 88 86 85 85 84 84 83 82 81 80 79 78 76 75 74 73 72 72 72 71 71 70 70 69 69 69 69 70 70 71 72 73 73 73 72 72 71 71 70 70 70 70 71 71 71 71 71 71 71 70 70 70 70 70 69 70
92 93 93 93 94 94 95 96 97 98 98 99 100 101 103 104 105 106 106 105 104 103 102 100 99 97 95 94 93 91 89 88 86 86 85 84 83 82 81 80 79 78 77 76 75 74 73 72 72 72 71 71 70 70 69 69 70 70 71 72 72 73 73 73 72 71 71 70 70 70 70 70 71 71 71 71 71 71 71 71 71 71 71 71 71 70
93 93 93 93 93 93 94 95 96 97 98 99 99 101 102 104 105 106 107 106 105 105 103 102 100 98 96 95 94 92 90 89 88 87 86 85 84 83 82 81 80 79 78 76 76 75 74 73 73 72 72 71 71 70 69 69 70 70 71 72 73 73 73 73 72 71 70 70 70 71 71 71 71 71 71 71 72 72 72 72 72 72 72 72 72 71
93 92 92 92 93 93 93 94 94 95 97 98 99 101 102 103 105 106 107 107 106 106 105 103 101 99 98 96 95 93 92 90 89 88 87 85 84 83 82 81 80 79 78 77 76 76 75 74 73 73 72 72 71 70 69 69 69 70 71 72 72 73 73 73 72 71 70 70 71 71 71 71 71 71 72 72 72 73 73 73 73 73 73 73 72 72
92 92 92 92 92 92 92 92 93 94 96 98 99 100 101 102 104 105 107 107 107 106 105 104 103 100 98 97 96 94 93 91 90 89 88 86 84 83 82 81 81 80 79 78 77 76 75 74 74 73 73 73 72 71 70 69 69 70 71 71 72 73 73 73 72 71 70 70 71 71 71 72 72 72 73 73 74 74 74 74 74 74 74 73 73 73
92 92 92 92 91 91 91 92 92 93 95 98 99 100 101 102 103 105 106 107 107 106 106 105 103 101 99 98 97 96 94 93 92 91 89 87 85 84 83 82 81 80 79 78 77 76 75 74 74 74 74 73 72 71 70 69 69 70 70 71 72 73 73 72 71 70 70 70 71 71 72 73 73 74 74 74 75 76 76 76 75 75 75 74 74 73
92 92 91 91 91 91 91 91 91 93 95 97 99 100 100 101 102 104 105 106 106 106 106 105 104 102 100 99 98 97 96 94 93 92 91 88 86 84 83 82 81 80 79 78 77 76 74 74 74 75 75 74 73 72 71 70 69 69 70 70 72 72 73 72 71 70 70 70 71 71 72 73 74 75 76 76 77 77 77 77 76 76 75 75 74 73
92 92 91 91 90 90 90 90 91 92 95 97 99 100 100 101 102 103 104 105 106 106 106 106 105 103 101 100 99 98 97 96 95 94 92 90 87 85 84 82 81 80 79 78 77 76 74 74 75 76 75 75 74 72 71 70 69 69 69 70 71 72 72 71 70 69 69 70 71 72 73 74 75 76 77 78 78 78 78 77 77 76 76 75 74 73
92 91 91 90 90 89 89 89 90 92 94 96 98 99 99 100 101 102 103 104 105 105 105 106 105 104 102 101 100 100 98 97 96 95 93 91 88 86 84 83 82 81 80 79 77 76 75 75 76 76 76 76 74 73 71 70 69 69 69 69 70 71 71 70 69 69 69 70 70 71 73 74 75 76 77 78 78 78 77 77 76 75 75 74 73 72
91 91 90 90 89 88 88 89 90 92 93 95 96 97 98 99 100 101 102 103 104 104 105 105 105 104 103 102 101 100 99 98 97 96 94 92 90 87 85 84 83 81 80 79 78 77 76 76 77 77 77 76 75 74 72 71 69 69 69 69 70 70 70 69 68 68 69 69 70 71 72 73 75 76 76 77 77 77 76 75 74 74 73 72 72 71
90 90 90 89 88 88 88 89 90 91 92 94 95 97 98 99 100 100 101 102 103 103 104 105 105 104 103 102 101 100 100 99 98 96 95 93 91 89 86 85 83 82 81 80 79 78 78 77 78 77 77 77 75 74 72 71 70 69 69 69 69 69 69 68 68 68 68 69 70 71 72 73 74 74 75 75 75 74 74 73 72 72 72 71 71 70
88 88 88 88 87 87 87 88 89 90 92 93 94 96 98 98 99 99 99 100 101 102 103 104 104 104 103 102 101 100 100 99 98 97 96 95 93 90 87 86 84 83 82 81 80 79 79 78 78 78 78 77 76 74 72 71 70 69 69 69 69 69 69 68 67 67 67 68 69 69 70 71 72 73 73 73 73 72 72 71 71 71 71 71 70 70
87 87 87 87 86 86 87 88 89 90 91 92 94 95 97 97 97 97 98 99 100 101 102 103 103 103 102 102 101 100 100 99 99 98 98 97 94 91 89 87 86 85 84 82 81 80 80 79 79 79 78 77 76 74 73 71 70 70 69 69 69 69 68 68 67 67 67 67 68 68 69 70 70 71 71 71 71 71 71 70 70 70 70 70 70 70
86 85 85 85 85 85 86 87 88 89 90 92 93 95 96 96 96 96 97 99 100 101 102 102 102 102 102 101 101 100 99 99 99 99 99 98 96 93 91 89 88 86 85 84 83 82 81 80 79 79 78 77 76 74 73 72 71 70 70 70 69 69 68 67 67 66 66 66 67 67 67 68 68 69 69 69 69 69 69 69 69 70 70 70 70 70
84 84 84 84 84 84 85 86 87 88 89 91 92 94 95 95 96 96 98 99 100 101 101 102 102 101 101 100 100 99 99 99 100 100 100 99 98 95 93 91 89 87 86 85 84 83 82 81 80 79 78 77 76 74 73 72 71 71 70 70 70 69 68 67 66 66 65 66 66 66 66 66 67 67 67 67 67 67 68 68 68 68 68 69 69 69
83 82 82 82 83 83 84 85 86 87 89 90 92 93 94 95 96 97 98 99 99 100 101 101 101 100 100 100 99 99 99 99 100 100 101 101 99 97 94 93 90 89 88 87 86 84 83 81 80 79 78 77 76 75 74 73 72 71 71 71 70 69 68 67 66 66 65 65 66 66 66 66 65 65 65 65 66 66 66 66 66 66 66 67 67 67
81 81 81 81 81 82 82 83 85 87 88 90 92 94 94 95 96 97 98 98 99 100 100 101 100 99 99 98 99 99 99 99 100 101 101 101 100 98 96 94 92 90 89 88 87 86 84 82 80 79 78 77 76 75 74 73 73 72 72 71 70 70 68 67 67 66 66 66 66 66 66 65 65 64 64 64 64 64 64 64 64 64 64 64 64 64
80 79 79 79 80 80 81 82 84 86 88 90 92 93 94 95 96 97 98 98 99 99 100 100 99 99 98 98 98 98 98 98 99 100 101 101 100 99 97 95 93 92 90 89 88 86 84 82 80 79 78 78 77 76 75 74 73 73 72 72 71 70 69 68 67 67 66 66 66 66 66 65 64 63 63 63 62 62 62 62 62 62 62 62 62 62
78 78 78 78 78 79 80 82 83 86 88 90 92 93 94 95 97 98 98 98 99 99 100 100 99 98 98 97 97 97 97 97 98 100 101 101 100 99 98 96 94 93 91 90 89 87 85 83 81 80 79 78 78 77 75 74 74 73 73 72 71 70 69 68 68 67 67 67 67 67 66 65 63 62 62 61 61 61 61 61 61 61 61 61 60 61
77 77 77 77 77 78 79 81 83 85 87 89 91 93 94 96 97 98 98 98 99 99 100 100 99 98 97 96 96 95 95 96 97 99 100 101 100 99 98 96 95 93 92 91 89 88 86 84 82 81 80 79 78 77 76 75 74 74 73 73 72 71 70 69 68 68 68 68 68 67 66 64 62 61 61 61 61 61 61 60 60 60 60 60 59 60
76 76 76 76 76 77 78 80 82 84 87 89 91 93 94 96 97 98 98 98 99 99 99 99 98 97 95 94 93 93 94 94 96 98 99 100 99 98 97 96 95 93 92 91 90 88 86 85 83 82 81 80 79 78 76 75 75 74 74 74 73 72 71 70 69 69 69 69 69 68 66 64 62 61 60 60 60 60 60 60 60 59 59 59 59 59
74 74 74 75 75 76 77 79 81 84 86 89 91 93 94 96 97 98 98 98 97 97 97 97 96 94 93 92 91 91 92 93 95 97 98 98 98 97 96 95 94 93 92 91 90 88 87 85 84 83 82 81 79 78 77 76 75 75 75 74 74 73 72 71 70 70 70 69 69 67 65 63 61 60 60 60 60 60 60 60 59 59 58 58 58 58
73 73 73 73 74 75 76 78 80 83 86 88 90 92 94 96 96 97 97 96 95 95 95 95 94 92 91 90 90 90 91 92 94 95 96 96 96 96 95 94 93 93 92 91 90 88 87 86 85 83 82 81 80 78 77 76 76 76 76 75 74 74 73 72 71 70 70 70 69 67 65 63 61 60 60 60 60 60 60 59 59 58 58 58 58 58
71 71 72 72 73 74 75 77 79 82 85 87 90 92 93 95 95 95 95 94 94 94 94 93 92 91 90 89 89 89 90 92 93 94 94 94 95 94 94 93 92 92 91 90 90 89 87 86 85 84 83 81 80 79 78 77 77 77 77 76 75 74 73 73 72 71 71 70 69 67 65 63 62 61 60 60 60 60 59 59 59 58 58 58 58 58
70 70 70 70 71 72 74 76 79 81 84 87 89 91 92 93 94 94 93 93 93 93 93 92 91 90 89 88 88 89 90 91 92 92 92 93 93 93 92 91 91 90 90 90 89 89 88 87 85 84 83 82 80 79 78 78 78 78 77 77 76 75 74 73 73 72 71 70 69 67 65 63 62 61 60 60 60 59 59 59 58 58 58 58 58 58
68 68 69 69 70 71 73 75 78 80 83 86 88 90 91 92 92 93 92 93 93 93 92 91 90 89 88 88 88 89 90 90 90 90 90 90 91 90 90 89 89 89 89 89 89 88 88 87 86 84 83 82 81 80 80 79 79 78 78 77 76 75 75 74 73 72 72 70 69 67 65 64 62 61 61 60 60 59 59 59 58 58 58 58 58 58
66 67 67 68 69 70 72 74 77 79 82 85 87 89 90 91 92 92 92 92 92 92 91 90 89 88 87 87 88 89 89 89 88 88 87 88 88 88 87 87 88 88 89 89 89 89 88 87 86 85 84 82 82 81 81 80 80 79 78 77 77 76 75 75 74 73 72 71 69 67 66 64 63 62 61 60 60 60 59 59 59 59 58 58 58 59
64 65 66 67 68 69 71 73 76 78 81 83 85 87 89 90 91 91 91 91 90 90 90 89 88 87 87 87 87 88 87 86 85 84 85 85 86 86 86 86 87 88 89 89 89 89 88 87 86 85 84 83 82 82 81 81 80 79 78 77 77 76 76 75 74 73 72 71 69 68 66 65 63 62 61 61 60 60 60 60 59 59 59 59 59 59
62 63 64 66 67 68 70 72 75 78 80 82 84 86 87 88 89 89 89 88 88 88 88 87 86 86 86 86 86 86 84 82 81 81 83 84 84 85 85 86 88 88 89 89 89 88 88 87 86 85 84 83 83 82 82 81 80 79 78 77 77 76 76 75 75 74 73 71 70 68 67 65 64 63 62 61 61 61 61 60 60 60 60 59 59 59
61 62 63 65 66 68 70 72 74 77 79 81 83 84 86 86 87 87 86 86 86 86 86 85 85 84 84 84 84 82 80 79 79 81 82 83 84 84 85 87 88 88 89 89 89 88 87 87 86 85 85 84 83 83 82 81 80 79 78 77 77 77 76 76 75 74 73 71 70 69 67 66 64 63 63 62 62 62 61 61 61 61 60 60 60 59
59 61 62 63 65 67 69 72 74 76 78 80 82 83 84 85 85 85 85 85 85 84 84 83 83 82 82 82 80 79 78 78 80 82 83 83 84 84 85 87 87 88 88 88 88 87 87 86 86 86 85 84 84 83 82 81 80 79 78 78 77 77 76 76 75 74 73 72 70 69 68 66 65 64 64 63 63 62 62 62 62 61 61 61 60 60
58 59 61 63 65 67 69 71 74 76 78 80 81 82 83 84 84 83 83 83 83 83 82 82 81 81 80 79 78 78 78 79 81 82 83 83 84 84 85 86 87 87 87 88 87 87 86 86 86 85 85 84 84 83 82 81 80 79 78 78 78 77 77 76 75 74 73 72 70 69 68 67 66 65 64 64 63 63 63 63 62 62 62 61 61 60
57 58 60 62 64 66 68 71 73 75 77 79 80 81 82 82 82 82 82 82 82 81 81 81 80 79 79 78 78 78 79 80 81 82 82 83 83 83 84 85 86 86 87 87 87 86 86 85 85 85 84 84 83 83 82 81 80 79 78 78 78 77 77 76 74 73 72 72 71 69 68 67 67 66 65 65 64 64 63 63 63 62 62 61 61 61
56 58 60 61 63 65 68 70 72 74 76 77 78 79 80 80 80 80 80 80 80 80 80 79 79 78 78 78 78 79 79 80 80 81 81 81 82 82 83 84 85 86 86 85 85 85 85 85 84 84 84 83 83 82 81 80 80 79 79 78 78 77 76 75 74 73 72 71 70 70 69 68 67 66 66 65 65 64 64 63 63 62 62 62 61 62
55 57 59 61 63 64 66 68 70 72 74 75 76 77 77 78 78 79 79 79 79 79 79 78 78 77 77 78 78 78 79 79 79 80 80 80 81 82 83 83 84 84 84 84 84 84 84 84 83 83 83 82 82 81 81 80 79 79 79 78 77 77 76 75 74 73 72 71 71 70 69 68 68 67 67 66 65 64 64 63 63 62 62 62 62 62
55 57 59 61 62 64 65 67 69 71 73 74 75 76 76 77 77 77 78 78 78 78 78 78 77 77 77 78 78 78 78 78 79 79 80 80 81 82 82 82 83 83 83 83 83 83 83 83 83 82 82 82 81 81 81 80 79 79 78 77 77 76 76 74 73 72 72 71 71 70 69 69 68 68 67 67 66 65 64 64 63 62 62 62 62 62
54 56 58 60 62 63 65 67 69 70 72 73 74 75 75 75 76 76 76 77 78 78 78 78 78 78 78 78 78 78 78 78 79 79 80 80 81 81 81 81 81 81 82 82 82 82 82 82 82 82 81 81 81 81 80 80 79 78 78 77 77 76 75 74 73 72 71 71 71 70 70 69 69 68 68 67 66 65 65 64 63 62 62 62 62 63
54 56 58 60 62 63 65 66 68 69 71 72 73 73 74 74 74 75 75 77 77 78 78 78 78 78 78 78 78 78 78 78 79 79 80 81 81 81 80 80 80 80 80 80 81 81 81 81 81 81 81 80 80 80 80 79 79 78 77 77 76 75 74 73 73 72 71 71 71 71 70 70 70 69 68 68 67 66 65 64 63 63 63 62 63 63
54 56 58 60 61 63 64 65 67 68 69 70 71 71 72 72 73 74 75 77 77 78 78 78 78 79 79 79 78 78 78 78 78 79 80 80 80 79 78 78 78 78 79 79 79 80 80 80 80 80 80 80 80 80 79 79 78 77 77 76 75 74 73 73 72 71 71 71 71 71 71 70 70 69 69 68 67 66 65 64 63 63 63 63 63 63
54 56 58 59 60 62 63 64 65 66 67 67 68 70 71 71 73 74 75 76 77 77 77 78 78 78 78 78 77 77 77 77 78 78 78 78 78 77 77 77 77 77 78 78 78 79 79 79 79 79 79 79 79 79 78 78 77 76 75 74 73 73 72 72 71 71 71 71 71 71 71 70 70 69 68 67 67 66 65 64 64 63 63 64 64 64
54 55 57 58 59 60 61 62 63 64 65 66 67 68 69 70 71 72 73 74 75 75 75 75 76 76 76 76 76 76 76 76 76 77 76 76 76 75 75 75 76 76 77 77 77 77 78 78 78 78 78 78 78 78 77 76 75 74 74 73 72 71 71 71 71 71 71 71 71 71 71 70 69 68 68 67 66 65 65 64 64 64 64 64 65 65
53 55 56 57 58 59 60 61 62 63 63 64 65 67 68 69 69 70 71 71 72 72 73 73 74 74 74 74 74 74 74 74 74 74 74 74 74 74 74 74 75 75 76 76 76 76 77 77 77 77 77 77 77 77 76 75 74 73 72 71 71 70 70 70 70 71 71 71 71 71 70 69 68 67 67 66 66 65 65 65 65 65 65 65 66 66
53 54 55 56 57 58 59 60 60 61 62 63 64 65 66 67 68 68 69 69 70 71 72 72 72 72 72 72 72 72 72 72 73 73 73 73 73 73 73 73 74 74 75 75 75 76 76 76 76 76 76 76 76 76 75 73 72 71 71 70 69 69 69 69 70 71 71 71 71 70 69 68 67 67 66 66 66 66 66 66 66 66 66 67 67 67
52 53 54 55 56 57 58 58 59 60 61 61 62 63 64 65 66 67 68 68 69 70 71 71 71 71 71 70 70 70 70 71 71 71 71 71 71 71 72 72 73 73 74 75 75 75 75 74 74 75 75 76 75 75 74 72 71 70 69 68 68 68 68 69 70 71 71 71 71 70 69 68 67 67 66 66 66 66 67 67 67 67 67 67 67 67
52 53 53 54 55 56 57 57 58 59 59 60 61 62 63 64 65 66 67 67 68 69 69 69 69 69 69 68 68 69 69 69 69 70 70 70 70 70 71 72 72 73 74 75 74 74 73 73 73 74 75 75 75 74 72 71 70 69 68 67 67 67 68 69 70 71 71 71 70 70 69 68 68 67 67 67 67 67 67 67 67 67 67 67 67 67
52 52 53 54 54 55 56 56 57 57 58 59 60 61 62 63 64 65 66 66 67 67 68 68 67 67 67 67 67 67 68 68 69 69 69 69 69 69 70 71 72 73 74 74 73 73 72 71 72 73 74 75 74 73 71 70 69 68 67 67 67 67 68 69 70 71 71 71 70 69 69 68 68 68 68 67 67 67 67 67 67 67 68 67 67 67
Wind_Direction
250 249 248 248 248 248 248 248 248 248 249 250 250 251 251 251 252 252 253 253 254 254 254 254 254 254 254 254 254 254 254 255 255 255 256 256 256 256 257 258 259 260 261 262 262 262 262 262 262 262 262 262 262 261 261 260 260 260 261 263 265 266 268 269 270 271 272 273 274 275 277 278 278 279 280 281 283 284 285 286 287 288 289 290 291 292
250 249 248 248 247 247 247 247 247 247 248 248 249 250 250 250 251 251 252 252 253 253 253 253 253 253 254 254 254 254 254 254 255 255 255 255 256 256 257 258 259 260 260 261 261 261 262 262 262 262 263 263 262 262 261 260 260 260 261 262 264 266 267 269 270 271 272 272 274 275 276 277 278 279 280 281 282 283 284 285 286 287 288 289 290 291
250 249 248 247 247 247 246 246 246 246 246 247 248 248 249 249 250 250 251 251 252 252 252 252 253 253 253 253 253 253 253 254 254 254 255 255 255 256 256 257 258 259 260 260 260 261 261 261 262 262 263 263 262 262 261 261 260 260 261 262 263 265 267 268 269 270 271 272 273 274 275 276 277 278 279 281 282 283 284 285 285 286 287 288 290 291
250 249 248 247 246 246 246 246 246 245 245 246 246 247 248 248 249 249 250 250 251 251 252 252 252 252 252 253 253 253 253 253 253 254 254 254 255 255 256 257 258 258 259 259 260 260 260 261 261 262 262 262 262 262 261 261 261 260 261 262 263 264 266 267 269 270 271 272 273 274 275 276 277 278 279 280 281 282 283 284 285 286 287 288 289 290
250 249 248 247 246 246 245 245 245 245 245 245 245 246 246 247 248 249 249 250 250 250 251 251 251 251 251 252 252 252 252 253 253 253 253 254 254 255 255 256 257 258 258 259 259 259 260 260 261 261 261 262 262 261 261 261 261 260 261 261 263 264 265 267 268 269 271 272 273 273 274 275 276 277 278 279 280 281 282 283 284 285 286 287 289 290
250 249 248 247 246 245 245 245 245 244 244 244 244 244 245 246 247 247 248 249 249 249 250 250 250 250 250 251 251 251 252 252 252 252 253 253 254 254 255 255 256 257 257 258 258 259 259 259 260 260 261 261 261 261 261 260 260 260 260 261 262 263 265 266 267 269 270 271 272 273 274 275 275 276 277 278 279 280 281 282 283 284 286 287 288 289
251 250 248 247 246 245 245 244 244 244 244 243 243 244 244 245 246 246 247 247 248 248 249 249 249 250 250 250 250 251 251 251 251 251 252 252 253 253 254 255 255 256 256 257 257 258 258 259 259 260 260 260 261 261 260 260 260 260 260 261 262 263 264 265 266 268 269 270 271 272 273 274 275 275 276 277 278 279 281 282 283 284 285 286 287 288
251 250 248 247 246 245 245 244 244 243 243 243 243 243 243 244 244 245 246 246 247 247 248 248 249 249 249 249 250 250 250 250 251 251 251 252 252 253 254 254 255 255 256 256 256 257 257 258 258 259 259 260 260 260 260 260 260 260 260 260 261 262 263 264 266 267 268 269 270 271 272 273 274 275 276 277 278 279 280 281 282 283 285 286 286 287
251 250 249 247 246 245 244 244 243 243 243 242 242 242 242 242 243 244 245 245 246 246 247 247 248 248 248 249 249 249 250 250 250 250 251 251 252 252 253 253 254 254 255 255 256 256 257 257 258 258 259 260 260 260 260 260 260 260 260 260 260 261 262 264 265 266 266 267 268 270 271 272 273 274 275 276 277 278 280 281 282 283 284 285 286 286
251 250 249 248 246 245 244 243 243 242 242 242 242 241 241 241 242 243 244 244 245 245 246 246 247 247 247 248 248 249 249 249 250 250 250 251 251 252 252 253 253 254 254 255 256 256 257 257 258 258 259 259 260 260 260 260 260 260 260 260 260 261 262 263 264 265 265 266 267 268 269 271 272 273 274 276 277 278 279 280 281 282 283 284 284 285
251 250 249 248 247 245 244 243 242 241 241 241 241 241 241 241 241 242 243 243 244 245 245 245 246 246 246 247 247 248 248 249 249 249 250 250 250 251 251 252 253 253 254 255 255 256 257 257 257 258 258 259 260 260 260 260 260 260 260 260 261 261 262 264 264 265 265 265 266 267 268 269 271 272 273 275 276 277 278 279 280 281 282 282 283 284
251 250 249 248 247 245 244 242 241 241 240 240 240 240 240 240 240 241 242 242 243 244 244 245 245 245 245 245 246 247 247 248 248 248 249 249 250 250 250 251 252 253 254 254 255 256 256 257 257 257 258 258 259 259 260 260 260 260 260 260 261 261 263 264 265 265 265 265 265 266 267 268 269 271 272 274 275 276 277 278 279 279 280 281 282 283
251 250 249 248 247 245 244 242 241 240 239 239 240 240 240 240 240 240 241 242 242 243 243 244 244 244 244 244 245 245 246 246 247 248 248 249 249 249 250 250 251 252 253 254 255 255 255 256 256 257 257 258 258 259 259 260 260 260 261 261 261 262 263 264 265 265 265 265 265 266 266 267 269 270 272 273 274 275 276 277 277 278 279 280 281 282
251 250 249 248 246 245 244 242 241 240 239 239 239 240 240 240 240 240 240 241 241 242 243 243 243 244 244 244 244 244 245 246 246 247 247 248 248 249 249 250 250 251 252 253 254 254 255 255 255 256 257 257 258 258 259 259 260 260 261 261 261 262 263 264 265 265 265 265 265 265 266 267 268 270 271 272 273 274 275 276 276 277 278 279 280 281
251 250 249 248 246 245 243 242 240 239 239 239 239 239 239 239 239 239 239 240 241 241 242 242 243 243 243 243 243 244 244 245 245 246 247 247 248 248 248 249 249 250 251 252 253 253 254 254 254 255 256 257 257 258 258 259 259 260 260 261 261 262 263 264 265 265 265 265 265 266 266 267 268 269 270 272 273 274 274 275 275 276 277 278 279 280
251 250 249 248 246 245 243 241 240 239 238 238 238 238 238 238 238 238 238 239 240 241 241 241 242 243 243 243 243 243 243 244 245 245 246 246 247 247 247 248 248 249 250 251 251 252 252 253 254 254 255 256 257 257 258 259 259 260 260 261 262 262 263 264 265 265 265 265 265 266 266 267 268 269 270 271 272 273 273 274 275 275 276 277 278 279
251 250 249 248 246 244 243 241 240 238 237 237 236 237 237 237 238 238 238 238 239 240 240 241 241 242 242 242 242 242 243 243 244 244 245 246 246 246 246 247 247 248 249 250 250 251 251 252 253 254 254 255 256 257 258 258 259 259 260 261 261 262 263 264 264 265 265 265 265 265 266 267 268 269 270 271 271 272 273 273 274 274 275 276 277 278
251 250 249 247 246 244 242 241 239 238 237 236 235 236 236 237 237 237 237 237 238 238 239 240 240 241 242 242 242 242 242 242 243 244 244 245 246 246 246 246 246 247 248 249 249 250 250 251 252 253 254 255 256 257 257 258 258 259 259 260 261 262 263 263 264 264 265 265 265 265 266 266 267 268 269 270 271 271 272 273 273 274 274 275 276 277
251 250 248 247 246 244 242 240 239 237 236 235 235 235 235 235 236 236 236 236 236 237 238 238 239 240 240 241 241 241 241 241 242 242 243 244 245 245 245 245 245 246 247 248 248 249 250 250 251 252 253 254 255 256 257 257 258 258 259 259 260 261 262 263 264 264 264 264 265 265 265 266 266 267 268 269 270 271 272 272 273 274 274 275 276 276
251 249 248 247 245 244 242 240 238 237 235 234 234 234 234 234 234 234 234 235 236 236 237 237 238 239 239 240 240 240 240 240 241 241 242 243 244 244 244 244 245 245 246 247 248 248 249 249 250 251 253 254 255 255 256 257 257 258 258 259 260 261 261 262 263 264 264 264 264 264 264 265 266 267 268 269 270 270 271 272 273 273 274 275 275 276
251 249 248 246 245 243 241 239 238 236 235 233 233 232 232 232 233 233 233 234 235 235 236 237 237 238 238 239 239 239 239 239 239 240 241 242 243 243 243 244 244 244 245 246 247 248 248 249 250 251 252 253 254 255 255 256 256 257 258 258 259 260 261 262 262 263 263 263 263 264 264 265 266 267 268 269 270 271 271 272 273 273 274 275 275 276
250 249 247 246 244 243 241 239 237 235 233 232 231 231 231 231 231 232 232 233 234 234 235 236 237 237 238 238 238 239 239 239 239 239 240 241 242 242 243 243 243 244 244 245 246 247 248 248 249 250 251 252 253 254 255 255 256 257 257 258 259 260 260 261 262 262 263 263 263 264 264 265 266 267 268 269 270 271 272 272 273 273 274 274 275 275
250 249 247 245 244 242 240 238 236 234 232 231 230 230 230 230 230 231 231 232 232 233 234 235 236 236 237 237 237 238 238 238 238 239 240 240 241 242 242 242 243 243 243 245 246 246 247 248 249 249 251 252 252 253 254 255 255 256 257 258 258 259 260 261 261 262 262 262 263 263 264 265 266 267 269 270 271 271 272 272 273 273 274 274 275 275
250 248 246 245 243 241 239 237 235 233 232 230 229 229 229 229 229 230 230 231 231 232 233 234 234 235 235 236 236 237 237 237 238 238 239 240 240 241 242 242 242 242 243 244 245 246 247 247 248 249 250 251 252 253 253 254 255 256 256 257 258 259 259 260 260 261 262 262 263 263 264 265 267 268 269 270 271 271 272 272 273 273 273 274 274 275
249 248 246 244 242 240 238 236 234 232 231 229 229 228 228 228 228 229 230 230 230 231 232 233 233 234 234 235 235 236 236 237 237 238 238 239 240 241 241 241 242 242 243 244 244 245 246 247 247 248 249 250 251 252 253 254 254 255 256 257 257 258 259 259 260 260 261 262 262 263 264 266 267 268 269 270 270 271 271 272 272 273 273 274 274 275
248 247 245 243 241 239 237 235 233 231 230 228 228 227 227 227 228 228 229 229 230 231 232 232 233 234 234 234 235 235 236 236 237 237 238 239 239 240 240 241 241 242 242 243 244 245 246 246 247 248 248 249 250 251 252 253 254 255 255 256 257 257 258 259 259 260 260 261 262 263 265 266 267 268 268 269 269 270 271 271 272 272 273 274 274 275
248 246 245 243 240 238 236 234 232 230 229 228 227 226 226 226 227 227 228 229 230 230 231 232 233 234 234 234 234 235 235 236 236 237 238 239 239 239 240 240 241 241 242 243 243 244 245 246 246 247 248 249 250 251 252 252 253 254 255 256 256 257 257 258 259 259 260 261 262 263 265 266 266 267 268 268 269 269 270 271 272 272 273 274 274 275
247 246 244 242 240 237 235 233 231 229 228 227 226 226 226 226 226 227 228 228 229 230 231 232 232 233 233 233 233 234 235 235 236 237 238 238 239 239 240 240 240 241 241 242 243 244 244 245 246 247 248 248 249 250 251 252 253 254 254 255 256 257 257 258 258 259 260 261 262 263 264 265 266 266 267 267 268 269 270 271 272 272 273 274 274 275
247 245 243 241 239 236 234 231 229 228 227 226 225 225 225 226 226 227 227 228 228 229 230 231 231 232 232 232 233 233 234 235 236 237 237 238 238 239 240 240 240 240 241 242 242 243 244 245 245 246 247 248 249 250 251 251 252 253 254 255 255 256 257 257 258 259 259 260 262 263 263 264 265 265 266 267 268 269 269 270 271 272 273 273 273 274
246 244 242 240 238 235 232 230 228 227 226 225 225 225 225 225 226 226 227 227 227 228 229 230 230 230 231 231 231 232 233 234 235 236 237 237 238 239 240 240 240 240 241 241 242 242 243 244 245 246 247 247 248 249 250 251 251 252 253 254 255 256 257 257 258 258 259 260 261 262 263 263 264 265 266 266 267 268 269 270 271 271 272 272 273 273
245 243 241 239 236 233 231 229 227 226 225 224 224 224 225 225 225 225 226 226 226 227 228 228 229 229 229 230 230 231 232 233 234 235 236 237 238 239 240 240 240 240 240 241 241 242 243 243 244 245 246 247 247 248 249 250 251 252 253 254 255 256 256 257 258 258 259 260 261 261 262 263 264 264 265 266 267 267 268 269 270 270 271 271 272 273
244 242 240 237 234 232 229 227 225 224 224 223 224 224 224 224 225 225 225 225 226 226 227 227 228 228 229 229 230 231 232 233 234 235 236 237 238 239 239 239 240 240 240 240 241 241 242 243 243 244 245 246 246 247 248 249 250 251 252 253 254 255 256 257 258 258 259 260 260 261 262 262 263 264 264 265 266 267 268 268 269 270 270 271 272 272
243 241 238 235 232 230 227 225 224 223 222 222 223 223 224 224 225 225 225 226 226 227 227 227 227 228 228 229 230 231 232 233 234 235 236 236 237 238 238 238 239 239 239 240 240 241 241 242 243 243 244 245 246 247 248 249 250 251 252 253 254 255 256 257 258 258 259 260 260 261 262 262 263 263 264 265 265 266 267 268 268 269 270 270 271 272
241 239 236 233 230 228 225 223 222 221 221 221 222 223 223 224 225 225 226 226 226 227 227 227 228 228 228 229 230 231 232 233 234 234 235 235 236 236 237 237 237 238 238 239 239 240 241 241 242 243 243 244 245 246 247 248 249 250 251 252 254 255 256 256 257 258 259 260 260 261 261 262 262 263 263 264 265 265 266 267 268 269 269 270 271 272
240 237 234 231 228 225 223 221 220 219 219 220 221 222 223 224 224 225 225 226 226 226 227 227 228 228 229 229 230 231 232 232 233 233 233 234 234 235 235 236 236 237 238 238 239 239 240 241 241 242 243 244 244 245 246 248 249 250 251 252 253 254 255 256 257 258 259 260 260 261 261 262 262 263 263 263 264 265 266 266 267 268 269 270 271 272
238 235 232 229 226 223 221 219 218 218 218 219 220 221 222 223 224 224 225 225 226 226 227 227 228 228 229 230 230 231 231 231 231 231 232 232 233 233 234 235 236 236 237 238 238 239 239 240 241 241 242 243 244 245 246 247 248 249 250 251 253 254 255 256 257 258 259 260 260 261 261 262 262 262 263 263 264 264 265 266 267 268 269 270 271 272
236 233 230 227 224 221 219 218 217 217 217 218 219 220 221 222 223 223 224 224 225 225 226 226 227 227 228 229 229 229 229 229 230 230 231 231 231 232 233 234 235 236 236 237 238 238 239 240 240 241 242 243 244 245 246 247 248 249 250 251 252 253 254 255 256 257 258 259 260 261 261 262 262 262 262 263 263 264 265 266 267 268 269 270 271 272
234 231 228 225 222 219 218 217 216 216 217 218 219 220 221 222 222 223 223 224 224 225 225 226 226 226 227 227 227 228 228 229 229 230 230 231 231 231 232 233 234 235 236 236 237 238 239 239 240 241 242 243 244 245 246 247 248 249 250 251 252 253 254 255 256 257 258 259 260 260 261 261 262 262 262 263 263 264 265 266 266 267 269 270 271 272
232 229 226 223 220 218 217 216 216 217 217 218 219 220 221 222 222 223 223 223 224 224 224 225 225 225 225 226 226 227 227 228 229 229 230 231 231 231 232 232 233 234 235 236 237 238 238 239 240 241 242 243 244 244 245 246 247 248 249 250 251 252 254 255 256 257 258 259 259 260 260 261 261 262 262 263 263 264 265 266 267 268 269 270 271 272
229 226 223 221 218 217 216 216 216 217 217 218 219 220 220 221 222 222 222 223 223 223 223 224 224 224 224 225 225 226 226 227 228 229 229 230 230 231 231 232 233 234 235 236 236 237 238 239 240 241 242 242 243 244 245 246 247 248 249 250 251 252 253 254 255 256 257 258 259 260 260 261 261 262 262 263 263 264 265 266 267 268 269 270 271 272
227 224 221 219 217 216 216 216 216 216 217 217 218 219 219 220 221 221 221 222 222 222 222 222 222 223 223 224 224 225 225 226 227 227 228 229 229 230 231 231 232 233 234 235 236 237 237 238 239 240 241 242 243 244 245 246 247 248 249 250 251 252 253 254 255 256 257 258 259 259 260 260 261 262 262 263 264 264 265 266 267 268 269 270 271 272
225 222 220 218 216 215 215 215 216 216 217 217 217 218 219 219 220 220 220 221 221 221 221 221 221 221 221 222 223 224 225 225 226 227 227 228 228 229 230 231 231 232 233 234 235 236 237 238 239 240 241 242 243 243 244 245 246 247 248 249 251 252 253 254 255 256 257 258 258 259 260 260 261 261 262 263 264 265 265 266 267 268 269 270 270 271
223 220 218 217 216 215 215 215 216 217 217 217 218 218 218 219 219 219 220 220 220 220 220 220 220 220 221 221 222 223 224 224 225 226 227 227 228 229 229 230 231 231 232 233 234 235 236 237 238 239 240 241 242 243 244 245 246 247 248 249 250 252 253 254 255 256 256 257 258 259 259 260 261 261 262 263 264 265 266 266 267 268 268 269 270 271
221 219 217 216 215 215 215 215 216 217 217 218 218 218 218 218 218 218 219 219 220 220 220 220 220 220 220 221 222 222 223 224 224 225 226 227 228 229 229 230 230 231 232 233 234 235 236 237 238 239 240 241 242 243 244 245 246 247 248 249 250 251 252 253 254 255 256 257 258 258 259 260 261 262 262 263 264 265 266 266 267 268 268 269 269 270
220 218 217 216 215 215 215 215 216 216 217 218 218 218 218 218 218 218 218 219 219 220 220 220 220 220 221 221 221 222 222 223 224 225 226 227 228 229 229 229 230 230 231 232 233 234 235 236 237 239 240 241 242 243 244 245 246 247 248 249 250 251 252 253 254 255 256 257 257 258 259 260 261 262 263 263 264 265 266 266 267 267 268 268 269 269
219 217 216 215 215 214 214 215 215 216 216 217 218 218 218 218 218 219 219 219 220 220 221 221 221 221 221 222 222 222 223 223 224 225 226 227 228 228 228 229 229 230 231 231 232 233 235 236 237 238 239 240 241 242 243 245 246 247 248 249 250 251 252 253 254 255 255 256 257 258 259 260 261 262 263 263 264 265 265 265 266 267 267 268 268 268
218 217 216 215 214 214 214 214 215 215 216 216 217 218 218 219 219 219 219 219 220 220 220 221 221 221 222 222 222 222 223 223 224 225 226 226 227 227 228 228 229 229 230 231 232 233 234 235 236 238 239 240 241 242 243 244 245 247 248 249 250 251 252 253 254 254 255 256 257 257 258 259 260 261 262 263 263 264 264 265 266 266 267 267 267 267
217 216 215 214 214 214 214 214 214 215 215 216 217 217 218 218 218 219 219 219 219 219 220 220 220 221 221 221 222 222 222 223 224 224 225 226 226 226 227 227 228 229 229 230 231 232 234 235 236 237 238 240 241 242 243 244 245 246 247 249 250 251 252 253 253 254 254 255 256 257 258 259 260 261 261 262 263 263 264 265 265 266 266 266 267 267
217 216 215 214 214 213 213 213 214 214 215 215 216 217 217 218 218 218 218 218 218 219 219 219 220 220 220 221 221 221 222 222 223 224 224 225 225 225 226 226 227 228 229 230 231 232 233 234 236 237 238 239 240 241 242 243 244 246 247 248 249 250 251 252 253 253 254 255 256 256 257 258 259 260 260 261 262 263 264 265 265 266 266 266 266 266
216 215 214 214 213 213 213 213 213 214 214 215 215 216 217 217 217 217 218 218 218 218 219 219 219 220 220 220 220 220 221 222 222 223 223 224 224 225 225 225 226 227 228 229 230 231 232 233 235 237 238 239 240 240 241 243 244 245 246 247 248 249 250 251 252 253 254 255 255 256 257 258 258 259 260 261 262 263 264 265 265 265 265 265 265 265
216 215 214 213 213 213 213 213 213 213 214 215 215 216 216 217 217 217 217 217 218 218 218 219 219 219 219 219 219 219 220 220 221 222 222 223 223 224 224 225 226 227 227 228 229 230 231 233 235 237 238 239 240 240 241 242 243 244 245 246 247 249 250 251 252 253 254 255 256 256 257 258 258 259 260 261 262 263 264 264 264 264 264 264 264 264
Height
10540 10543 10546 10547 10548 10548 10549 10551 10553 10555 10555 10556 10558 10560 10561 10563 10565 10565 10568 10570 10572 10575 10578 10581 10583 10585 10586 10589 10591 10593 10595 10597 10599 10601 10602 10605 10605 10605 10607 10609 10611 10613 10616 10617 10618 10620 10621 10622 10623 10624 10625 10626 10628 10629 10630 10631 10632 10632 10631 10630 10629 10629 10630 10630 10630 10631 10631 10632 10633 10633 10634 10634 10634 10634 10635 10635 10635 10635 10635 10635 10635 10635 10635 10635 10635 10633
10530 10535 10538 10539 10539 10540 10541 10544 10546 10547 10547 10548 10550 10551 10553 10556 10556 10558 10560 10562 10565 10567 10570 10573 10576 10578 10580 10582 10585 10587 10590 10591 10594 10595 10596 10599 10600 10600 10602 10604 10606 10608 10611 10613 10614 10615 10616 10617 10618 10619 10620 10621 10623 10624 10625 10626 10626 10627 10626 10625 10625 10625 10625 10625 10626 10626 10628 10628 10629 10630 10630 10630 10630 10630 10631 10631 10631 10631 10631 10631 10631 10631 10631 10631 10631 10630
10521 10525 10528 10530 10531 10532 10533 10536 10538 10540 10540 10541 10543 10544 10545 10546 10548 10550 10551 10554 10557 10560 10563 10566 10569 10571 10573 10576 10578 10581 10583 10586 10588 10590 10591 10593 10594 10595 10596 10598 10601 10603 10606 10608 10609 10610 10611 10612 10613 10614 10615 10616 10618 10620 10620 10621 10622 10622 10621 10621 10620 10620 10620 10621 10621 10622 10623 10624 10625 10625 10626 10626 10626 10626 10627 10627 10627 10627 10628 10628 10628 10628 10628 10628 10627 10626
10513 10515 10518 10521 10523 10525 10525 10528 10530 10531 10532 10534 10535 10536 10536 10537 10538 10540 10543 10546 10550 10553 10556 10559 10562 10565 10567 10570 10572 10575 10577 10580 10582 10584 10585 10586 10588 10590 10591 10593 10595 10598 10600 10602 10604 10605 10606 10607 10608 10608 10610 10611 10613 10615 10615 10616 10617 10617 10617 10616 10616 10615 10616 10616 10617 10618 10619 10620 10621 10621 10622 10622 10623 10623 10623 10623 10623 10623 10623 10623 10624 10624 10624 10624 10623 10623
10504 10506 10509 10513 10515 10516 10516 10520 10522 10524 10525 10526 10528 10528 10528 10528 10530 10531 10535 10539 10542 10545 10548 10551 10555 10558 10560 10563 10565 10568 10571 10574 10576 10578 10580 10581 10582 10585 10586 10588 10590 10593 10595 10597 10599 10600 10601 10602 10603 10603 10605 10606 10608 10609 10610 10611 10612 10612 10613 10612 10611 10611 10611 10611 10613 10613 10615 10616 10616 10617 10618 10618 10619 10619 10619 10619 10620 10620 10620 10620 10620 10620 10620 10620 10620 10619
10495 10497 10500 10503 10505 10506 10509 10512 10515 10516 10516 10518 10520 10521 10520 10521 10521 10524 10527 10531 10535 10537 10540 10543 10548 10551 10554 10556 10558 10562 10565 10568 10570 10571 10573 10575 10577 10579 10581 10583 10585 10588 10590 10593 10594 10595 10596 10597 10598 10598 10600 10601 10603 10604 10605 10606 10607 10608 10608 10608 10607 10606 10606 10607 10608 10609 10610 10611 10613 10613 10614 10615 10615 10615 10615 10615 10615 10615 10615 10615 10616 10616 10616 10616 10615 10615
10486 10488 10491 10494 10496 10498 10502 10505 10506 10508 10509 10511 10513 10513 10513 10513 10514 10516 10518 10521 10525 10529 10533 10536 10540 10544 10547 10550 10552 10555 10559 10562 10564 10565 10566 10569 10571 10573 10575 10577 10580 10582 10586 10588 10589 10590 10591 10592 10593 10593 10595 10596 10598 10599 10600 10601 10602 10603 10603 10603 10602 10601 10601 10602 10603 10605 10606 10608 10608 10609 10610 10610 10611 10611 10611 10611 10611 10611 10611 10611 10611 10611 10611 10611 10611 10611
10475 10478 10481 10484 10486 10490 10494 10496 10498 10500 10501 10503 10504 10505 10505 10505 10506 10507 10509 10512 10517 10522 10526 10529 10533 10537 10540 10543 10546 10548 10551 10555 10557 10559 10560 10563 10566 10567 10570 10571 10574 10576 10580 10582 10583 10584 10586 10587 10588 10588 10590 10591 10592 10594 10595 10596 10597 10598 10598 10599 10598 10597 10597 10598 10599 10601 10602 10603 10605 10605 10606 10606 10607 10607 10607 10607 10607 10607 10607 10607 10608 10608 10608 10608 10607 10606
10464 10468 10471 10475 10478 10481 10485 10488 10490 10493 10494 10495 10495 10496 10497 10498 10498 10500 10501 10505 10508 10513 10517 10521 10525 10530 10533 10536 10540 10542 10545 10548 10550 10552 10554 10558 10560 10561 10564 10566 10568 10571 10573 10576 10578 10579 10581 10582 10583 10583 10585 10586 10587 10588 10590 10591 10593 10593 10594 10594 10593 10593 10592 10593 10595 10596 10598 10599 10600 10601 10602 10603 10603 10603 10603 10603 10603 10603 10603 10603 10603 10603 10603 10603 10603 10603
10453 10458 10461 10465 10468 10473 10476 10479 10482 10485 10486 10486 10486 10487 10489 10490 10491 10492 10493 10496 10499 10503 10508 10513 10518 10522 10527 10530 10533 10535 10538 10540 10543 10546 10548 10551 10553 10556 10558 10560 10563 10565 10568 10571 10573 10575 10575 10577 10578 10579 10580 10580 10581 10583 10585 10586 10588 10588 10589 10589 10589 10588 10588 10588 10590 10592 10594 10595 10596 10597 10598 10598 10599 10599 10599 10599 10598 10598 10599 10599 10599 10599 10599 10599 10599 10598
10443 10448 10452 10455 10459 10463 10467 10471 10474 10476 10478 10477 10477 10478 10481 10483 10485 10485 10486 10488 10491 10496 10501 10505 10510 10515 10520 10524 10526 10528 10531 10534 10537 10540 10541 10544 10547 10550 10552 10554 10557 10560 10563 10565 10567 10569 10570 10572 10573 10573 10574 10575 10576 10578 10580 10581 10583 10583 10584 10585 10584 10583 10583 10584 10586 10588 10590 10591 10592 10593 10594 10595 10595 10595 10595 10595 10595 10595 10595 10595 10595 10595 10595 10595 10595 10595
10433 10437 10442 10446 10450 10454 10458 10462 10465 10468 10469 10468 10468 10470 10473 10475 10477 10478 10480 10481 10485 10489 10493 10497 10501 10506 10512 10516 10519 10521 10524 10527 10530 10533 10535 10537 10541 10544 10546 10548 10551 10554 10557 10559 10561 10563 10565 10567 10568 10568 10568 10570 10571 10573 10574 10576 10577 10578 10579 10579 10579 10579 10579 10580 10581 10583 10585 10586 10588 10589 10590 10590 10591 10591 10591 10591 10591 10590 10590 10590 10590 10590 10590 10590 10590 10590
10423 10427 10431 10436 10440 10445 10450 10453 10457 10459 10460 10460 10460 10462 10465 10468 10471 10473 10474 10475 10478 10482 10485 10490 10494 10498 10503 10508 10511 10514 10516 10519 10522 10525 10528 10531 10534 10538 10541 10543 10545 10548 10551 10553 10555 10558 10560 10562 10563 10562 10563 10564 10565 10567 10569 10571 10572 10573 10573 10574 10574 10574 10574 10575 10577 10579 10580 10582 10583 10584 10585 10586 10586 10587 10587 10587 10586 10586 10586 10586 10586 10586 10586 10586 10586 10586
10413 10417 10421 10426 10431 10436 10441 10445 10448 10450 10450 10450 10452 10455 10460 10463 10466 10468 10468 10468 10471 10474 10478 10482 10486 10489 10495 10500 10503 10506 10509 10512 10515 10519 10523 10525 10528 10531 10535 10537 10540 10542 10545 10547 10550 10551 10554 10556 10556 10556 10556 10558 10560 10561 10564 10565 10566 10568 10568 10569 10569 10569 10570 10571 10573 10575 10576 10578 10579 10579 10581 10581 10582 10583 10583 10583 10583 10582 10582 10582 10582 10581 10581 10581 10581 10582
10406 10408 10411 10416 10421 10427 10433 10436 10439 10440 10441 10443 10446 10450 10453 10456 10458 10460 10460 10461 10463 10466 10470 10474 10476 10480 10486 10491 10495 10498 10502 10506 10510 10513 10516 10518 10521 10526 10530 10531 10534 10536 10539 10541 10544 10546 10548 10550 10550 10550 10551 10552 10554 10556 10558 10560 10561 10563 10563 10563 10564 10564 10565 10566 10568 10570 10571 10574 10575 10575 10576 10577 10578 10578 10578 10578 10578 10578 10578 10578 10578 10578 10577 10577 10578 10578
10399 10400 10401 10406 10412 10418 10423 10426 10429 10431 10434 10437 10440 10441 10443 10446 10448 10451 10453 10455 10456 10459 10463 10466 10469 10473 10478 10482 10487 10492 10496 10500 10503 10508 10510 10512 10515 10519 10524 10526 10528 10530 10533 10536 10538 10540 10541 10543 10544 10545 10545 10546 10548 10550 10553 10555 10556 10558 10558 10558 10559 10560 10560 10562 10563 10565 10567 10570 10571 10572 10572 10572 10573 10573 10574 10574 10574 10574 10573 10573 10573 10573 10573 10573 10573 10573
10390 10393 10393 10396 10402 10408 10413 10417 10420 10423 10426 10428 10431 10432 10433 10436 10440 10444 10447 10448 10450 10451 10455 10457 10460 10465 10470 10475 10481 10486 10490 10493 10497 10501 10504 10506 10508 10513 10518 10520 10521 10524 10527 10530 10532 10533 10535 10537 10538 10539 10540 10541 10543 10545 10548 10550 10551 10553 10553 10554 10554 10555 10556 10557 10559 10561 10563 10565 10566 10567 10567 10568 10568 10569 10569 10570 10570 10569 10569 10569 10569 10569 10569 10569 10569 10569
10379 10384 10387 10390 10393 10398 10403 10408 10411 10414 10417 10420 10421 10423 10425 10429 10434 10438 10441 10441 10441 10443 10446 10448 10453 10457 10462 10468 10473 10478 10483 10487 10491 10495 10498 10500 10501 10505 10511 10513 10516 10518 10521 10523 10525 10527 10530 10531 10532 10533 10535 10536 10538 10540 10543 10545 10546 10548 10548 10549 10549 10550 10551 10553 10555 10556 10558 10560 10561 10562 10563 10563 10564 10564 10565 10565 10565 10565 10565 10565 10565 10565 10565 10565 10565 10565
10368 10374 10380 10381 10384 10388 10394 10398 10401 10405 10409 10411 10413 10415 10418 10421 10425 10429 10431 10432 10433 10435 10437 10441 10445 10450 10455 10461 10466 10471 10477 10480 10485 10490 10493 10493 10495 10499 10504 10507 10510 10511 10515 10516 10519 10521 10523 10525 10526 10528 10529 10531 10533 10535 10538 10540 10541 10542 10543 10543 10544 10545 10546 10548 10550 10552 10553 10555 10556 10557 10558 10559 10559 10560 10560 10560 10560 10560 10560 10560 10560 10560 10560 10561 10561 10561
10358 10363 10370 10373 10376 10380 10383 10387 10391 10396 10400 10403 10405 10407 10410 10412 10416 10420 10421 10423 10425 10428 10430 10434 10438 10443 10448 10454 10460 10465 10470 10472 10478 10484 10485 10485 10488 10492 10496 10500 10503 10505 10508 10510 10512 10515 10518 10520 10521 10523 10525 10526 10528 10530 10533 10535 10536 10537 10538 10538 10540 10541 10542 10544 10546 10548 10549 10550 10551 10552 10553 10554 10555 10555 10555 10555 10555 10556 10556 10556 10556 10556 10556 10556 10556 10556
10348 10353 10358 10365 10369 10371 10372 10378 10383 10388 10391 10393 10395 10398 10400 10403 10407 10410 10413 10416 10419 10421 10424 10427 10431 10436 10442 10448 10452 10456 10460 10464 10470 10474 10476 10478 10481 10485 10489 10493 10496 10499 10501 10504 10506 10509 10511 10514 10516 10518 10520 10521 10523 10525 10528 10530 10531 10531 10533 10533 10535 10536 10538 10540 10541 10543 10544 10545 10546 10547 10548 10549 10550 10550 10550 10551 10551 10551 10551 10551 10552 10552 10552 10552 10553 10553
10340 10343 10347 10356 10361 10363 10363 10369 10374 10378 10380 10382 10385 10387 10390 10394 10398 10401 10404 10408 10411 10414 10416 10419 10423 10429 10435 10440 10444 10447 10452 10456 10461 10465 10470 10473 10475 10477 10481 10486 10490 10493 10495 10497 10500 10503 10506 10508 10511 10513 10515 10516 10518 10520 10523 10524 10525 10526 10528 10529 10530 10531 10533 10535 10536 10538 10539 10540 10541 10541 10543 10544 10545 10546 10546 10546 10546 10547 10547 10547 10548 10548 10548 10548 10548 10548
10330 10334 10340 10346 10351 10354 10356 10360 10364 10367 10370 10372 10375 10378 10381 10386 10389 10391 10395 10400 10403 10405 10408 10411 10416 10422 10428 10431 10435 10439 10444 10448 10452 10458 10465 10466 10466 10468 10473 10479 10483 10486 10488 10491 10494 10497 10500 10503 10505 10508 10509 10511 10513 10515 10516 10519 10520 10521 10522 10524 10525 10527 10529 10530 10532 10533 10534 10535 10536 10536 10538 10539 10540 10541 10542 10542 10542 10543 10543 10543 10543 10543 10543 10544 10544 10544
10322 10326 10331 10336 10341 10346 10350 10351 10354 10357 10360 10363 10366 10370 10375 10378 10380 10383 10387 10391 10394 10396 10400 10404 10409 10413 10418 10421 10426 10431 10435 10439 10445 10451 10456 10458 10459 10461 10466 10472 10476 10479 10482 10485 10488 10491 10495 10497 10500 10502 10504 10506 10508 10510 10511 10513 10515 10516 10517 10518 10520 10522 10523 10525 10527 10528 10529 10530 10530 10531 10533 10535 10536 10537 10538 10538 10538 10538 10538 10538 10539 10539 10539 10539 10539 10539
10313 10317 10321 10326 10332 10338 10343 10343 10345 10348 10351 10355 10358 10362 10365 10368 10370 10373 10378 10381 10385 10387 10391 10395 10399 10403 10407 10413 10418 10424 10428 10433 10438 10443 10447 10451 10454 10457 10461 10465 10469 10473 10476 10480 10483 10486 10488 10491 10494 10496 10499 10501 10503 10505 10506 10508 10510 10511 10511 10513 10515 10517 10518 10520 10521 10523 10524 10525 10525 10527 10529 10531 10533 10533 10533 10533 10533 10533 10533 10534 10534 10534 10535 10535 10535 10535
10305 10308 10312 10317 10323 10330 10334 10336 10337 10339 10342 10345 10349 10352 10355 10358 10360 10364 10368 10372 10376 10379 10382 10386 10390 10395 10401 10408 10415 10419 10423 10428 10432 10436 10439 10445 10448 10451 10455 10459 10463 10467 10471 10474 10477 10480 10483 10485 10488 10491 10493 10495 10497 10500 10501 10503 10504 10505 10506 10508 10510 10511 10513 10515 10516 10518 10519 10520 10521 10523 10525 10527 10528 10529 10529 10529 10529 10529 10529 10529 10529 10530 10530 10530 10530 10530
10296 10300 10304 10308 10314 10319 10324 10330 10332 10332 10333 10336 10340 10343 10345 10348 10352 10356 10360 10364 10368 10371 10375 10380 10385 10391 10399 10406 10410 10414 10418 10422 10426 10429 10433 10438 10442 10445 10448 10453 10458 10462 10465 10468 10471 10474 10477 10480 10482 10485 10487 10488 10491 10495 10497 10497 10498 10500 10500 10503 10505 10506 10508 10510 10511 10513 10514 10515 10517 10519 10521 10523 10524 10524 10524 10524 10524 10524 10524 10524 10525 10525 10525 10525 10525 10525
10288 10291 10295 10299 10304 10309 10315 10320 10324 10325 10325 10328 10331 10334 10336 10340 10344 10348 10351 10356 10361 10367 10371 10375 10380 10386 10394 10400 10404 10408 10413 10416 10419 10422 10427 10433 10436 10438 10441 10448 10453 10456 10460 10463 10466 10468 10471 10474 10476 10479 10481 10483 10486 10490 10492 10493 10494 10495 10495 10497 10500 10501 10503 10505 10506 10508 10510 10511 10513 10515 10516 10518 10519 10520 10520 10520 10520 10520 10519 10520 10520 10520 10520 10520 10520 10520
10280 10284 10287 10291 10295 10300 10306 10311 10315 10316 10317 10320 10323 10325 10328 10332 10336 10340 10345 10351 10358 10362 10365 10368 10375 10381 10388 10393 10398 10403 10407 10409 10411 10416 10422 10428 10430 10431 10435 10443 10448 10451 10454 10458 10460 10463 10466 10468 10471 10473 10476 10478 10481 10484 10486 10488 10490 10490 10491 10492 10494 10496 10498 10500 10501 10503 10505 10506 10508 10510 10512 10513 10515 10515 10515 10515 10515 10515 10515 10515 10515 10515 10515 10516 10516 10516
10273 10276 10280 10283 10288 10293 10298 10302 10305 10307 10310 10312 10315 10318 10321 10326 10330 10334 10340 10347 10352 10355 10358 10363 10370 10376 10383 10388 10393 10397 10400 10401 10404 10411 10418 10423 10424 10425 10431 10439 10443 10445 10449 10453 10455 10458 10460 10461 10465 10468 10471 10473 10476 10478 10480 10481 10483 10484 10486 10488 10490 10491 10492 10494 10496 10498 10500 10501 10503 10506 10508 10509 10510 10510 10511 10511 10510 10510 10510 10510 10510 10511 10511 10511 10511 10511
10266 10269 10272 10276 10280 10285 10290 10294 10297 10300 10302 10305 10308 10311 10315 10320 10325 10329 10334 10339 10343 10347 10351 10358 10364 10370 10376 10381 10386 10388 10390 10394 10400 10406 10413 10417 10418 10420 10426 10433 10437 10440 10443 10446 10449 10450 10453 10456 10459 10462 10465 10467 10470 10471 10473 10475 10476 10478 10480 10483 10485 10486 10487 10489 10491 10493 10495 10497 10499 10501 10503 10504 10505 10506 10506 10506 10506 10506 10506 10506 10506 10506 10506 10506 10506 10506
10259 10262 10265 10268 10273 10277 10282 10286 10290 10293 10296 10299 10302 10306 10310 10315 10318 10323 10327 10331 10336 10341 10347 10353 10359 10364 10370 10375 10378 10381 10386 10391 10398 10403 10408 10411 10413 10416 10423 10428 10431 10435 10438 10440 10441 10443 10446 10450 10452 10455 10459 10461 10463 10465 10466 10468 10470 10472 10475 10477 10478 10480 10481 10483 10486 10488 10490 10492 10495 10496 10498 10500 10501 10501 10501 10501 10501 10501 10501 10501 10501 10501 10501 10501 10501 10501
10253 10255 10258 10262 10266 10270 10275 10279 10283 10286 10290 10293 10297 10301 10305 10309 10313 10317 10322 10327 10331 10337 10343 10348 10354 10360 10365 10370 10374 10378 10384 10390 10395 10398 10402 10405 10408 10412 10418 10422 10426 10428 10431 10433 10435 10438 10440 10443 10446 10450 10453 10455 10457 10458 10461 10463 10465 10468 10470 10472 10473 10473 10475 10478 10480 10483 10485 10487 10490 10491 10493 10495 10496 10496 10497 10497 10496 10496 10496 10496 10496 10497 10497 10497 10497 10497
10246 10250 10253 10256 10260 10264 10269 10273 10276 10280 10284 10288 10291 10295 10300 10304 10309 10313 10318 10323 10328 10333 10338 10344 10350 10355 10360 10365 10370 10375 10380 10385 10390 10393 10396 10399 10402 10406 10411 10415 10418 10420 10423 10426 10429 10431 10435 10438 10441 10444 10447 10449 10451 10453 10455 10457 10460 10463 10466 10467 10467 10468 10470 10472 10475 10476 10478 10481 10484 10486 10488 10490 10491 10491 10491 10492 10491 10491 10491 10492 10492 10492 10493 10493 10493 10493
10241 10244 10247 10251 10255 10259 10263 10267 10271 10275 10279 10283 10286 10290 10295 10300 10305 10310 10315 10319 10325 10330 10335 10340 10346 10351 10355 10360 10365 10371 10376 10381 10385 10388 10390 10392 10396 10400 10405 10408 10409 10411 10416 10418 10421 10425 10430 10432 10435 10438 10440 10443 10445 10448 10450 10452 10456 10459 10461 10461 10462 10463 10464 10466 10468 10471 10473 10475 10478 10480 10481 10483 10485 10486 10486 10486 10486 10486 10487 10487 10488 10488 10488 10488 10488 10488
10236 10239 10242 10246 10250 10254 10258 10261 10265 10269 10273 10277 10281 10285 10290 10295 10300 10305 10310 10315 10320 10325 10330 10336 10341 10346 10351 10356 10361 10366 10371 10375 10378 10380 10382 10385 10389 10393 10397 10400 10401 10405 10409 10411 10415 10420 10423 10426 10429 10431 10434 10436 10439 10441 10444 10448 10451 10455 10456 10456 10457 10458 10459 10461 10463 10466 10468 10470 10471 10473 10475 10477 10479 10480 10481 10481 10481 10482 10482 10482 10483 10483 10483 10483 10484 10484
10231 10235 10238 10241 10246 10250 10254 10257 10261 10264 10268 10271 10276 10280 10285 10290 10296 10301 10305 10311 10315 10320 10325 10331 10336 10342 10347 10351 10356 10360 10365 10368 10371 10373 10374 10378 10382 10386 10390 10392 10395 10399 10403 10405 10408 10413 10417 10420 10423 10426 10429 10431 10433 10436 10439 10443 10447 10450 10450 10450 10451 10453 10454 10456 10459 10461 10463 10464 10466 10468 10470 10471 10473 10474 10475 10476 10476 10477 10477 10478 10478 10478 10478 10479 10479 10480
10228 10231 10234 10238 10241 10246 10250 10253 10256 10259 10263 10266 10270 10275 10280 10285 10290 10296 10301 10306 10310 10315 10320 10326 10331 10336 10341 10346 10350 10353 10357 10360 10363 10364 10367 10371 10376 10380 10383 10386 10390 10393 10396 10399 10403 10407 10411 10415 10417 10420 10423 10426 10428 10431 10433 10437 10441 10443 10443 10444 10445 10447 10449 10451 10454 10456 10458 10459 10460 10462 10464 10466 10467 10468 10469 10470 10471 10471 10472 10472 10473 10473 10473 10474 10475 10475
10223 10226 10230 10234 10238 10242 10246 10249 10251 10254 10257 10261 10265 10270 10275 10281 10286 10291 10296 10300 10305 10310 10315 10320 10325 10331 10335 10339 10343 10346 10350 10353 10356 10358 10362 10366 10371 10375 10378 10381 10384 10387 10390 10394 10398 10402 10406 10409 10411 10415 10418 10421 10424 10426 10429 10432 10434 10436 10437 10439 10441 10443 10445 10446 10449 10451 10453 10454 10455 10456 10458 10460 10461 10463 10463 10464 10465 10466 10466 10467 10468 10468 10469 10470 10470 10470
10219 10222 10226 10230 10235 10238 10242 10244 10246 10249 10253 10257 10261 10266 10270 10275 10280 10285 10290 10295 10299 10303 10308 10314 10320 10325 10329 10333 10336 10340 10343 10347 10350 10354 10357 10361 10366 10371 10374 10376 10379 10382 10386 10390 10394 10397 10401 10404 10407 10410 10413 10416 10418 10421 10423 10426 10428 10430 10431 10434 10436 10437 10439 10442 10445 10446 10447 10448 10450 10451 10452 10454 10455 10457 10458 10458 10460 10461 10461 10462 10462 10463 10464 10465 10465 10465
10215 10218 10221 10225 10230 10234 10239 10240 10241 10243 10247 10251 10255 10259 10263 10268 10273 10279 10285 10290 10294 10298 10303 10309 10315 10320 10324 10327 10331 10334 10338 10341 10345 10348 10352 10356 10361 10365 10368 10371 10375 10378 10382 10386 10389 10393 10396 10399 10402 10405 10408 10410 10413 10415 10417 10420 10422 10425 10426 10428 10429 10431 10433 10437 10439 10440 10441 10443 10444 10445 10446 10448 10450 10451 10452 10453 10455 10455 10456 10458 10458 10458 10459 10460 10460 10460
10210 10213 10216 10220 10224 10228 10233 10235 10236 10238 10241 10245 10248 10253 10257 10262 10268 10274 10279 10284 10288 10293 10297 10303 10308 10313 10318 10322 10325 10329 10333 10336 10340 10343 10346 10351 10355 10358 10363 10366 10370 10374 10378 10381 10385 10388 10391 10394 10397 10400 10403 10405 10408 10410 10413 10415 10417 10420 10421 10423 10424 10427 10431 10433 10434 10435 10437 10438 10438 10440 10442 10443 10444 10445 10446 10448 10449 10450 10451 10453 10453 10453 10454 10455 10455 10455
10205 10208 10211 10215 10218 10222 10226 10230 10231 10233 10236 10240 10244 10248 10253 10258 10264 10269 10274 10278 10283 10287 10291 10296 10301 10306 10311 10315 10319 10323 10328 10331 10335 10339 10342 10346 10349 10353 10358 10361 10366 10370 10373 10376 10380 10383 10386 10390 10393 10395 10398 10400 10403 10405 10407 10409 10412 10415 10417 10418 10420 10423 10427 10426 10427 10430 10432 10432 10433 10435 10436 10437 10438 10440 10441 10443 10444 10445 10446 10448 10448 10448 10449 10450 10450 10450
10200 10203 10206 10210 10214 10218 10223 10225 10226 10229 10233 10236 10241 10245 10250 10255 10259 10264 10269 10273 10278 10282 10287 10292 10297 10302 10306 10310 10314 10318 10323 10327 10331 10336 10338 10341 10345 10350 10354 10358 10362 10365 10368 10372 10375 10378 10381 10386 10388 10390 10393 10395 10398 10400 10402 10405 10407 10410 10411 10413 10416 10418 10418 10419 10421 10425 10427 10427 10428 10430 10431 10432 10433 10435 10436 10437 10438 10440 10441 10442 10443 10443 10444 10445 10445 10445
10196 10199 10202 10206 10211 10216 10219 10220 10221 10225 10229 10233 10238 10242 10246 10250 10255 10259 10263 10268 10273 10277 10281 10286 10292 10298 10302 10305 10308 10313 10318 10322 10326 10330 10334 10338 10342 10346 10351 10355 10358 10361 10364 10367 10370 10373 10377 10380 10383 10385 10388 10391 10393 10395 10397 10400 10402 10405 10407 10410 10412 10414 10415 10416 10418 10421 10421 10422 10423 10425 10425 10427 10428 10430 10431 10431 10433 10434 10435 10436 10437 10438 10438 10439 10440 10440
10192 10195 10198 10203 10208 10211 10212 10215 10218 10221 10226 10230 10233 10238 10241 10246 10250 10255 10259 10263 10268 10273 10278 10283 10288 10292 10295 10300 10304 10309 10313 10317 10321 10325 10330 10334 10338 10343 10347 10350 10353 10356 10360 10363 10366 10369 10373 10375 10377 10380 10383 10386 10388 10390 10391 10395 10398 10402 10403 10405 10408 10410 10411 10414 10415 10415 10415 10416 10418 10419 10420 10422 10424 10425 10425 10425 10427 10428 10430 10431 10432 10433 10433 10433 10434 10434
10189 10192 10195 10200 10203 10206 10208 10210 10213 10218 10222 10226 10230 10234 10238 10242 10246 10251 10256 10260 10265 10270 10274 10279 10284 10288 10292 10296 10301 10305 10309 10313 10316 10321 10325 10330 10334 10338 10342 10346 10349 10352 10355 10358 10362 10366 10369 10371 10373 10376 10378 10381 10383 10386 10388 10392 10395 10398 10398 10400 10403 10405 10407 10408 10408 10409 10410 10412 10413 10414 10415 10418 10419 10419 10418 10420 10422 10424 10425 10426 10427 10428 10428 10428 10428 10428
10186 10190 10193 10197 10200 10202 10203 10206 10210 10213 10218 10222 10226 10230 10235 10238 10243 10248 10253 10257 10261 10266 10270 10275 10280 10284 10288 10293 10298 10301 10305 10309 10313 10316 10321 10325 10329 10333 10337 10341 10344 10347 10351 10354 10357 10361 10364 10367 10370 10372 10374 10376 10378 10381 10385 10388 10391 10393 10393 10396 10398 10401 10402 10402 10402 10404 10406 10407 10408 10408 10410 10412 10413 10413 10414 10416 10418 10418 10419 10420 10421 10422 10422 10423 10423 10423
10183 10186 10190 10194 10198 10199 10200 10202 10206 10210 10215 10219 10223 10227 10231 10236 10240 10245 10249 10253 10258 10262 10266 10271 10275 10281 10286 10290 10295 10298 10302 10305 10309 10313 10316 10321 10325 10329 10333 10336 10339 10342 10345 10349 10352 10356 10360 10364 10368 10370 10372 10373 10375 10377 10380 10383 10386 10388 10390 10393 10395 10396 10397 10397 10397 10398 10401 10402 10403 10404 10405 10406 10407 10408 10410 10412 10412 10413 10414 10415 10415 10416 10416 10416 10416 10416
10181 10184 10186 10190 10194 10196 10198 10200 10203 10208 10212 10216 10220 10223 10228 10232 10237 10241 10246 10250 10255 10259 10263 10268 10273 10278 10283 10286 10291 10295 10298 10301 10305 10309 10313 10316 10320 10325 10328 10331 10334 10337 10340 10344 10348 10353 10359 10364 10366 10366 10366 10369 10371 10373 10376 10378 10381 10384 10388 10390 10391 10391 10393 10392 10392 10393 10395 10396 10397 10398 10400 10401 10403 10404 10406 10407 10406 10407 10408 10409 10410 10410 10410 10410 10411 10411
10178 10181 10184 10187 10190 10194 10196 10198 10201 10205 10210 10213 10216 10220 10225 10229 10233 10238 10243 10247 10251 10256 10260 10265 10270 10275 10279 10283 10287 10290 10293 10297 10301 10305 10308 10313 10316 10320 10323 10326 10329 10332 10336 10340 10344 10349 10355 10360 10362 10362 10361 10362 10365 10369 10371 10374 10376 10380 10383 10385 10385 10386 10387 10387 10387 10388 10390 10391 10391 10393 10395 10396 10397 10399 10400 10401 10401 10402 10403 10403 10403 10403 10403 10404 10405 10405